Location: Staunton
(38.1490°N, 79.0720°W)
Time: 00:12:16
(UTC-05:00)

ISS - Pass Details

Date: 22 January 2021
Orbit: 418 x 421 km, 51.6° (Epoch: 23 January)

Event Time Altitude Azimuth Distance (km) Brightness Sun altitude
Rises 18:52:53 0° 273° (W) 2,363 1.6 -16.6°
Reaches altitude 10° 18:55:32 10° 295° (WNW) 1,502 -0.2 -17.1°
Maximum altitude 18:57:48 17° 337° (NNW) 1,164 -1.4 -17.5°
Enters shadow 18:59:03 14° 4° (N) 1,279 -1.5 -17.8°
